Location: *
(60.1759°S, 155.0663°W)
Time: 17:23:35
(UTC+00:00)

Cosmos 494 Rocket - Pass Details

Date: 17 September 2019
Orbit: 741 x 771 km, 74.1° (Epoch: 22 October)

Event Time Altitude Azimuth Distance (km) Brightness Sun altitude
Rises 15:20:38 0° 213° (SSW) 3,274 7.0 -8.6°
Reaches altitude 10° 15:23:02 10° 214° (SSW) 2,338 6.3 -8.3°
Maximum altitude 15:28:22 82° 300° (WNW) 785 4.0 -7.7°
Drops below altitude 10° 15:33:35 10° 26° (NNE) 2,295 6.7 -7.0°
Sets 15:35:55 0° 27° (NNE) 3,209 7.5 -6.7°
